Time,TemperatureF,DewpointF,PressureIn,WindDirection,WindDirectionDegrees,WindSpeedMPH,WindSpeedGustMPH,Humidity,HourlyPrecipIn,Conditions,Clouds,dailyrainin,SoftwareType,DateUTC
2013-01-28 07:23:00,35.0,31.0,30.43,WNW,293,1.0,3.0,86,0.00,,,0.00,,2013-01-28 12:23:00,
2013-01-28 07:33:00,36.0,32.0,30.43,WNW,302,1.0,3.0,86,0.00,,,0.00,,2013-01-28 12:33:00,
2013-01-28 07:42:00,36.0,32.0,30.43,WNW,302,1.0,3.0,86,0.00,,,0.00,,2013-01-28 12:42:00,
2013-01-28 07:50:00,36.0,32.0,30.43,WNW,288,1.0,3.0,86,0.00,,,0.00,,2013-01-28 12:50:00,
2013-01-28 07:52:00,36.0,32.0,30.44,WNW,291,1.0,2.0,86,0.00,,,0.00,,2013-01-28 12:52:00,
2013-01-28 08:03:00,36.0,32.0,30.43,WNW,288,1.0,3.0,86,0.00,,,0.00,,2013-01-28 13:03:00,
2013-01-28 08:12:00,36.0,32.0,30.43,WNW,288,1.0,3.0,86,0.00,,,0.00,,2013-01-28 13:12:00,
2013-01-28 08:23:00,36.0,32.0,30.43,WNW,288,1.0,3.0,86,0.00,,,0.00,,2013-01-28 13:23:00,
2013-01-28 08:33:00,36.0,32.0,30.43,WNW,288,1.0,3.0,86,0.00,,,0.00,,2013-01-28 13:33:00,
2013-01-28 08:42:00,36.0,32.0,30.43,WNW,288,1.0,3.0,86,0.00,,,0.00,,2013-01-28 13:42:00,
2013-01-28 12:23:00,46.0,42.0,30.40,West,281,1.0,3.0,86,0.00,,,0.00,,2013-01-28 17:23:00,
2013-01-28 12:33:00,47.0,43.0,30.38,West,274,0.0,1.0,85,0.00,,,0.00,,2013-01-28 17:33:00,
2013-01-28 12:42:00,47.0,43.0,30.38,West,274,0.0,1.0,85,0.00,,,0.00,,2013-01-28 17:42:00,
2013-01-28 12:50:00,49.0,45.0,30.36,West,274,0.0,1.0,85,0.00,,,0.00,,2013-01-28 17:50:00,
2013-01-28 12:53:00,47.0,43.0,30.37,West,274,0.0,1.0,85,0.00,,,0.00,,2013-01-28 17:53:00,
2013-01-28 13:03:00,49.0,45.0,30.36,West,274,0.0,1.0,85,0.00,,,0.00,,2013-01-28 18:03:00,
2013-01-28 13:12:00,49.0,45.0,30.36,West,274,0.0,1.0,85,0.00,,,0.00,,2013-01-28 18:12:00,
2013-01-28 13:23:00,49.0,45.0,30.36,West,274,0.0,1.0,85,0.00,,,0.00,,2013-01-28 18:23:00,
2013-01-28 13:33:00,49.0,45.0,30.36,West,274,0.0,1.0,85,0.00,,,0.00,,2013-01-28 18:33:00,
2013-01-28 13:42:00,49.0,45.0,30.36,West,274,0.0,1.0,85,0.00,,,0.00,,2013-01-28 18:42:00,
2013-01-28 22:32:00,53.0,52.0,30.25,WSW,245,0.0,2.0,95,0.00,,,0.00,,2013-01-29 03:32:00,
2013-01-28 22:42:00,53.0,52.0,30.25,WSW,245,0.0,2.0,95,0.00,,,0.00,,2013-01-29 03:42:00,
2013-01-28 22:53:00,53.0,51.0,30.24,WSW,244,0.0,1.0,94,0.00,,,0.00,,2013-01-29 03:53:00,
2013-01-28 23:02:00,54.0,53.0,30.24,WSW,246,0.0,1.0,95,0.00,,,0.00,,2013-01-29 04:02:00,
2013-01-28 23:12:00,54.0,53.0,30.24,WSW,246,0.0,1.0,95,0.00,,,0.00,,2013-01-29 04:12:00,
2013-01-28 23:22:00,54.0,53.0,30.24,WSW,246,0.0,1.0,95,0.00,,,0.00,,2013-01-29 04:22:00,
2013-01-28 23:32:00,54.0,53.0,30.24,WSW,248,0.0,1.0,95,0.00,,,0.00,,2013-01-29 04:32:00,
2013-01-28 23:42:00,54.0,53.0,30.24,WSW,248,0.0,1.0,95,0.00,,,0.00,,2013-01-29 04:42:00,
2013-01-28 23:52:00,54.0,53.0,30.24,WSW,248,0.0,1.0,95,0.00,,,0.00,,2013-01-29 04:52:00,